When you browse on this site, cookies collect data to enhance your experience and personalize the content and advertising you see.
Visit our Privacy Policy to learn more. By continuing to use the site, you agree to this use of cookies and data.
EN

Hourly Weather Pechenizhyn

Today, 16 July, Thursday

Time Temperature Precipitation Wind Pressure Humidity
00:00 +17°C° 0 mm 0 mps 730 mmHg 90%
01:00 +19°C° 0 mm 1 mps 730 mmHg 86%
02:00 +12°C° 0 mm 0 mps 730 mmHg 90%
03:00 +15°C° 0 mm 1 mps 730 mmHg 85%
04:00 +15°C° 0 mm 1 mps 730 mmHg 82%
05:00 +15°C° 0 mm 0 mps 730 mmHg 80%
06:00 +15°C° 0 mm 1 mps 729 mmHg 84%
07:00 +15°C° 0 mm 0 mps 730 mmHg 91%
08:00 +18°C° 0 mm 1 mps 730 mmHg 93%
09:00 +20°C° 0 mm 1 mps 730 mmHg 91%
10:00 +22°C° 0 mm 1 mps 730 mmHg 86%
11:00 +22°C° 0 mm 3 mps 730 mmHg 79%
12:00 +21°C° 0.5 mm 2 mps 730 mmHg 78%
13:00 +23°C° 0 mm 1 mps 730 mmHg 75%
14:00 +23°C° 0.3 mm 2 mps 730 mmHg 76%
15:00 +22°C° 0.1 mm 3 mps 729 mmHg 82%
16:00 +23°C° 0.2 mm 2 mps 729 mmHg 83%
17:00 +22°C° 0.6 mm 1 mps 729 mmHg 81%
18:00 +23°C° 0 mm 1 mps 729 mmHg 79%
19:00 +22°C° 0 mm 1 mps 728 mmHg 85%
20:00 +22°C° 0 mm 1 mps 728 mmHg 90%
21:00 +21°C° 0 mm 1 mps 728 mmHg 91%
22:00 +19°C° 0 mm 2 mps 728 mmHg 87%
23:00 +19°C° 0 mm 2 mps 728 mmHg 82%

Tomorrow, 17 July, Friday

Time Temperature Precipitation Wind Pressure Humidity
00:00 +19°C° 0 mm 2 mps 728 mmHg 81%
01:00 +18°C° 0 mm 2 mps 728 mmHg 84%
02:00 +17°C° 0 mm 2 mps 728 mmHg 85%
03:00 +17°C° 0 mm 2 mps 728 mmHg 88%
04:00 +17°C° 0 mm 2 mps 728 mmHg 85%
05:00 +17°C° 0 mm 2 mps 728 mmHg 82%
06:00 +17°C° 0 mm 2 mps 728 mmHg 87%
07:00 +18°C° 0 mm 2 mps 729 mmHg 94%
08:00 +19°C° 0 mm 2 mps 729 mmHg 95%
09:00 +21°C° 0 mm 1 mps 730 mmHg 94%
10:00 +21°C° 0 mm 1 mps 730 mmHg 92%
11:00 +21°C° 0 mm 2 mps 730 mmHg 92%
12:00 +23°C° 0.1 mm 1 mps 729 mmHg 88%
13:00 +24°C° 0.1 mm 2 mps 729 mmHg 87%
14:00 +24°C° 0.3 mm 2 mps 729 mmHg 86%
15:00 +23°C° 2.1 mm 2 mps 729 mmHg 91%
16:00 +21°C° 1.7 mm 3 mps 728 mmHg 96%
17:00 +21°C° 1 mm 3 mps 729 mmHg 95%
18:00 +22°C° 0.1 mm 1 mps 729 mmHg 93%
19:00 +22°C° 0 mm 1 mps 729 mmHg 94%
20:00 +19°C° 0 mm 0 mps 729 mmHg 97%
21:00 +20°C° 0 mm 2 mps 729 mmHg 98%
22:00 +18°C° 0 mm 0 mps 729 mmHg 96%
23:00 +18°C° 0 mm 0 mps 729 mmHg 95%

Day after tomorrow, 18 July, Saturday

Time Temperature Precipitation Wind Pressure Humidity
00:00 +18°C° 0 mm 0 mps 729 mmHg 96%
01:00 +18°C° 0 mm 0 mps 729 mmHg 93%
02:00 +18°C° 0 mm 0 mps 729 mmHg 92%
03:00 +18°C° 0 mm 0 mps 729 mmHg 93%
04:00 +17°C° 0 mm 0 mps 729 mmHg 95%
05:00 +17°C° 0 mm 0 mps 729 mmHg 98%
06:00 +17°C° 0 mm 0 mps 729 mmHg 99%
07:00 +17°C° 0 mm 0 mps 729 mmHg 98%
08:00 +20°C° 0 mm 1 mps 729 mmHg 97%
09:00 +21°C° 0 mm 2 mps 729 mmHg 97%
10:00 +21°C° 0 mm 3 mps 730 mmHg 97%
11:00 +22°C° 0 mm 3 mps 729 mmHg 98%
12:00 +23°C° 0 mm 4 mps 729 mmHg 92%
13:00 +23°C° 0.9 mm 6 mps 729 mmHg 96%
14:00 +23°C° 0.2 mm 6 mps 729 mmHg 91%
15:00 +24°C° 0 mm 6 mps 728 mmHg 89%
16:00 +25°C° 0 mm 5 mps 728 mmHg 87%
17:00 +25°C° 0 mm 5 mps 728 mmHg 87%
18:00 +25°C° 0 mm 5 mps 728 mmHg 86%
19:00 +23°C° 0 mm 5 mps 728 mmHg 89%
20:00 +22°C° 0 mm 4 mps 728 mmHg 93%
21:00 +21°C° 0 mm 4 mps 728 mmHg 95%
22:00 +21°C° 0 mm 4 mps 729 mmHg 97%
23:00 +20°C° 0 mm 3 mps 729 mmHg 98%

19 July, Sunday

Time Temperature Precipitation Wind Pressure Humidity
00:00 +20°C° 0 mm 3 mps 729 mmHg 100%
01:00 +19°C° 0 mm 2 mps 728 mmHg 100%
02:00 +19°C° 0 mm 2 mps 729 mmHg 100%
03:00 +20°C° 0 mm 1 mps 728 mmHg 100%
04:00 +20°C° 0 mm 1 mps 728 mmHg 100%
05:00 +18°C° 0 mm 2 mps 728 mmHg 100%
06:00 +19°C° 0 mm 2 mps 728 mmHg 100%
07:00 +19°C° 0 mm 2 mps 728 mmHg 100%
08:00 +20°C° 0 mm 2 mps 729 mmHg 100%
09:00 +20°C° 0 mm 2 mps 729 mmHg 100%
10:00 +21°C° 0 mm 2 mps 729 mmHg 99%
11:00 +21°C° 0 mm 3 mps 729 mmHg 98%
12:00 +23°C° 0.1 mm 2 mps 729 mmHg 97%
13:00 +24°C° 0 mm 2 mps 728 mmHg 94%
14:00 +25°C° 0 mm 2 mps 728 mmHg 90%
15:00 +25°C° 0.1 mm 4 mps 728 mmHg 89%
16:00 +23°C° 1.6 mm 1 mps 727 mmHg 82%
17:00 +24°C° 0 mm 1 mps 728 mmHg 79%
18:00 +24°C° 0 mm 2 mps 727 mmHg 84%
19:00 +24°C° 0 mm 1 mps 727 mmHg 90%
20:00 +23°C° 0 mm 2 mps 727 mmHg 94%
21:00 +21°C° 0 mm 2 mps 727 mmHg 97%
22:00 +21°C° 0 mm 1 mps 727 mmHg 98%
23:00 +21°C° 0 mm 1 mps 727 mmHg 97%

20 July, Monday

Time Temperature Precipitation Wind Pressure Humidity
00:00 +19°C° 0 mm 0 mps 727 mmHg 93%
01:00 +20°C° 0 mm 1 mps 727 mmHg 99%
02:00 +18°C° 0 mm 0 mps 727 mmHg 100%
03:00 +17°C° 0 mm 0 mps 727 mmHg 100%
04:00 +17°C° 0 mm 0 mps 727 mmHg 100%
05:00 +16°C° 0 mm 0 mps 727 mmHg 100%
06:00 +17°C° 0 mm 0 mps 727 mmHg 100%
07:00 +17°C° 0 mm 0 mps 727 mmHg 100%
08:00 +18°C° 0 mm 0 mps 727 mmHg 100%
09:00 +21°C° 0 mm 1 mps 727 mmHg 99%
10:00 +22°C° 0 mm 1 mps 728 mmHg 98%
11:00 +23°C° 0 mm 2 mps 727 mmHg 97%
12:00 +24°C° 0 mm 2 mps 728 mmHg 92%
13:00 +25°C° 0 mm 2 mps 727 mmHg 87%
14:00 +23°C° 0.3 mm 4 mps 727 mmHg 87%
15:00 +25°C° 0 mm 5 mps 727 mmHg 83%
16:00 +25°C° 0 mm 4 mps 727 mmHg 85%
17:00 +25°C° 0 mm 3 mps 727 mmHg 87%
18:00 +25°C° 0 mm 3 mps 727 mmHg 83%
19:00 +24°C° 0 mm 2 mps 727 mmHg 86%
20:00 +22°C° 0 mm 3 mps 727 mmHg 90%
21:00 +21°C° 0 mm 2 mps 727 mmHg 95%
22:00 +21°C° 0 mm 2 mps 728 mmHg 97%
23:00 +20°C° 0 mm 2 mps 728 mmHg 97%

21 July, Tuesday

Time Temperature Precipitation Wind Pressure Humidity
00:00 +20°C° 0 mm 3 mps 728 mmHg 97%
01:00 +20°C° 0 mm 3 mps 728 mmHg 96%
02:00 +20°C° 0 mm 2 mps 728 mmHg 94%
03:00 +19°C° 0 mm 2 mps 728 mmHg 94%
04:00 +19°C° 0 mm 2 mps 728 mmHg 93%
05:00 +19°C° 0 mm 2 mps 728 mmHg 92%
06:00 +19°C° 0 mm 3 mps 728 mmHg 92%
07:00 +20°C° 0 mm 4 mps 729 mmHg 91%
08:00 +20°C° 0 mm 4 mps 729 mmHg 91%
09:00 +21°C° 0 mm 4 mps 729 mmHg 92%
10:00 +21°C° 0 mm 4 mps 730 mmHg 93%
11:00 +23°C° 0 mm 4 mps 730 mmHg 93%
12:00 +23°C° 0 mm 4 mps 730 mmHg 92%
13:00 +25°C° 0 mm 4 mps 730 mmHg 91%
14:00 +23°C° 0 mm 6 mps 730 mmHg 93%
15:00 +23°C° 0 mm 7 mps 730 mmHg 91%
16:00 +23°C° 0 mm 7 mps 730 mmHg 90%
17:00 +22°C° 0.1 mm 7 mps 731 mmHg 90%
18:00 +21°C° 0 mm 6 mps 731 mmHg 88%
19:00 +21°C° 0 mm 5 mps 731 mmHg 88%
20:00 +20°C° 0 mm 4 mps 732 mmHg 91%
21:00 +19°C° 0 mm 3 mps 732 mmHg 93%
22:00 +18°C° 0 mm 3 mps 732 mmHg 93%
23:00 +17°C° 0 mm 3 mps 732 mmHg 94%
Show more